H1 CPF 2 NER 2025 12 5 9 339 01 glonass142 H2 2001801 9142 45358 2025 12 5 0 0 0 2025 12 8 23 45 0 900 1 1 0 0 0 1 H9 10 0 61014 0.00000 0 -2385601.643 -21171743.151 14066524.465 10 0 61014 900.00000 0 -1635370.741 -19446404.751 16462664.007 10 0 61014 1800.00000 0 -621989.780 -17543465.407 18539917.847 10 0 61014 2700.00000 0 658409.264 -15526535.941 20258095.306 10 0 61014 3600.00000 0 2197217.536 -13460608.455 21583946.801 10 0 61014 4500.00000 0 3973465.571 -11409448.711 22491798.980 10 0 61014 5400.00000 0 5954462.137 -9433058.089 22964046.131 10 0 61014 6300.00000 0 8096930.429 -7585309.413 22991489.122 10 0 61014 7200.00000 0 10348595.994 -5911853.659 22573515.632 10 0 61014 8100.00000 0 12650162.221 -4448383.420 21718118.192 10 0 61014 9000.00000 0 14937593.236 -3219324.409 20441749.177 10 0 61014 9900.00000 0 17144611.068 -2237008.822 18769014.691 10 0 61014 10800.00000 0 19205304.849 -1501364.643 16732212.093 10 0 61014 11700.00000 0 21056744.611 -1000133.759 14370718.731 10 0 61014 12600.00000 0 22641491.491 -709609.884 11730242.291 10 0 61014 13500.00000 0 23909899.793 -595865.567 8861945.978 10 0 61014 14400.00000 0 24822114.444 -616416.934 5821464.336 10 0 61014 15300.00000 0 25349679.502 -722256.187 2667828.092 10 0 61014 16200.00000 0 25476689.286 -860165.976 -537681.499 10 0 61014 17100.00000 0 25200432.603 -975217.442 -3732726.487 10 0 61014 18000.00000 0 24531501.808 -1013345.466 -6855130.564 10 0 61014 18900.00000 0 23493360.979 -923890.965 -9844097.403 10 0 61014 19800.00000 0 22121390.543 -662001.133 -12641404.339 10 0 61014 20700.00000 0 20461447.963 -190784.308 -15192546.969 10 0 61014 21600.00000 0 18568004.816 516873.565 -17447811.302 10 0 61014 22500.00000 0 16501938.667 1476909.509 -19363251.606 10 0 61014 23400.00000 0 14328072.823 2693162.031 -20901554.057 10 0 61014 24300.00000 0 12112567.727 4156967.988 -22032768.835 10 0 61014 25200.00000 0 9920273.844 5847296.165 -22734896.110 10 0 61014 26100.00000 0 7812157.392 7731412.951 -22994314.409 10 0 61014 27000.00000 0 5842906.840 9766052.906 -22806043.198 10 0 61014 27900.00000 0 4058820.175 11899045.561 -22173834.868 10 0 61014 28800.00000 0 2496060.833 14071330.469 -21110094.725 10 0 61014 29700.00000 0 1179354.279 16219276.118 -19635631.088 10 0 61014 30600.00000 0 121178.457 18277205.544 -17779240.842 10 0 61014 31500.00000 0 -678519.702 20180022.801 -15577139.133 10 0 61014 32400.00000 0 -1232071.827 21865830.258 -13072244.864 10 0 61014 33300.00000 0 -1563312.465 23278427.216 -10313336.503 10 0 61014 34200.00000 0 -1706315.077 24369585.413 -7354095.278 10 0 61014 35100.00000 0 -1703694.959 25101006.535 -4252054.953 10 0 61014 36000.00000 0 -1604552.541 25445880.381 -1067479.185 10 0 61014 36900.00000 0 -1462145.373 25389979.244 2137811.217 10 0 61014 37800.00000 0 -1331388.266 24932243.670 5301637.994 10 0 61014 38700.00000 0 -1266287.936 24084836.120 8362668.671 10 0 61014 39600.00000 0 -1317420.838 22872661.349 11261600.041 10 0 61014 40500.00000 0 -1529560.698 21332374.476 13942299.309 10 0 61014 41400.00000 0 -1939555.635 19510918.822 16352881.457 10 0 61014 42300.00000 0 -2574544.015 17463654.911 18446702.822 10 0 61014 43200.00000 0 -3450583.889 15252158.573 20183252.745 10 0 61014 44100.00000 0 -4571753.578 12941779.356 21528927.229 10 0 61014 45000.00000 0 -5929761.403 10599059.997 22457670.766 10 0 61014 45900.00000 0 -7504081.590 8289123.058 22951474.955 10 0 61014 46800.00000 0 -9262611.781 6073131.896 23000724.993 10 0 61014 47700.00000 0 -11162826.148 4005929.993 22604387.749 10 0 61014 48600.00000 0 -13153377.775 2133955.324 21770037.732 10 0 61014 49500.00000 0 -15176085.456 493515.136 20513720.033 10 0 61014 50400.00000 0 -17168223.964 -890507.997 18859651.983 10 0 61014 51300.00000 0 -19065024.070 -2005465.660 16839768.191 10 0 61014 52200.00000 0 -20802279.474 -2851235.221 14493116.329 10 0 61014 53100.00000 0 -22318952.693 -3439981.490 11865113.989 10 0 61014 54000.00000 0 -23559671.498 -3795398.340 9006679.637 10 0 61014 54900.00000 0 -24477011.258 -3951461.973 5973253.391 10 0 61014 55800.00000 0 -25033466.960 -3950748.181 2823725.844 10 0 61014 56700.00000 0 -25203031.113 -3842384.575 -380704.634 10 0 61014 57600.00000 0 -24972309.962 -3679724.564 -3577723.927 10 0 61014 58500.00000 0 -24341129.617 -3517842.032 -6705119.862 10 0 61014 59400.00000 0 -23322605.218 -3410953.672 -9702001.105 10 0 61014 60300.00000 0 -21942668.929 -3409879.368 -12509992.589 10 0 61014 61200.00000 0 -20239075.669 -3559649.659 -15074383.008 10 0 61014 62100.00000 0 -18259927.728 -3897363.208 -17345200.970 10 0 61014 63000.00000 0 -16061779.934 -4450386.638 -19278197.853 10 0 61014 63900.00000 0 -13707404.941 -5234974.439 -20835717.395 10 0 61014 64800.00000 0 -11263312.559 -6255368.758 -21987434.539 10 0 61014 65700.00000 0 -8797127.347 -7503418.278 -22710948.832 10 0 61014 66600.00000 0 -6374934.605 -8958733.288 -22992220.749 10 0 61014 67500.00000 0 -4058705.874 -10589371.110 -22825842.590 10 0 61014 68400.00000 0 -1903911.496 -12353023.547 -22215138.952 10 0 61014 69300.00000 0 42580.379 -14198656.658 -21172095.241 10 0 61014 70200.00000 0 1744231.374 -16068534.029 -19717116.094 10 0 61014 71100.00000 0 3176116.014 -17900538.513 -17878618.913 10 0 61014 72000.00000 0 4325708.305 -19630694.818 -15692471.021 10 0 61014 72900.00000 0 5193140.748 -21195786.906 -13201281.952 10 0 61014 73800.00000 0 5790927.100 -22535960.281 -10453565.248 10 0 61014 74700.00000 0 6143162.796 -23597199.933 -7502786.710 10 0 61014 75600.00000 0 6284238.927 -24333580.127 -4406318.224 10 0 61014 76500.00000 0 6257126.070 -24709192.000 -1224318.062 10 0 61014 77400.00000 0 6111302.139 -24699668.566 1981440.029 10 0 61014 78300.00000 0 5900413.196 -24293243.922 5148765.865 10 0 61014 79200.00000 0 5679767.009 -23491302.993 8216256.538 10 0 61014 80100.00000 0 5503765.793 -22308399.610 11124481.486 10 0 61014 81000.00000 0 5423386.698 -20771742.892 13817126.274 10 0 61014 81900.00000 0 5483816.215 -18920173.896 16242073.601 10 0 61014 82800.00000 0 5722337.832 -16802675.548 18352401.411 10 0 61014 83700.00000 0 6166561.500 -14476477.831 20107279.900 10 0 61014 84600.00000 0 6833068.974 -12004836.638 21472751.244 10 0 61014 85500.00000 0 7726531.862 -9454577.772 22422378.116 10 0 61015 0.00000 0 8839339.436 -6893507.146 22937749.454 10 0 61015 900.00000 0 10151753.143 -4387791.850 23008834.680 10 0 61015 1800.00000 0 11632580.840 -1999422.620 22634179.314 10 0 61015 2700.00000 0 13240346.001 216143.126 21820939.140 10 0 61015 3600.00000 0 14924903.353 2212057.873 20584751.015 10 0 61015 4500.00000 0 16629435.788 3951796.484 18949442.348 10 0 61015 5400.00000 0 18292750.821 5410433.987 16946583.637 10 0 61015 6300.00000 0 19851782.161 6575436.060 14614891.324 10 0 61015 7200.00000 0 21244192.869 7446929.421 11999491.156 10 0 61015 8100.00000 0 22410971.778 8037440.910 9151054.915 10 0 61015 9000.00000 0 23298914.467 8371116.086 6124826.146 10 0 61015 9900.00000 0 23862884.172 8482450.064 2979552.991 10 0 61015 10800.00000 0 24067756.761 8414584.031 -223651.538 10 0 61015 11700.00000 0 23889966.647 8217239.451 -3422499.721 10 0 61015 12600.00000 0 23318587.024 7944377.695 -6554746.105 10 0 61015 13500.00000 0 22355897.330 7651684.774 -9559406.889 10 0 61015 14400.00000 0 21017412.450 7393988.715 -12377957.002 10 0 61015 15300.00000 0 19331371.068 7222720.118 -14955480.457 10 0 61015 16200.00000 0 17337703.603 7183524.889 -17241750.447 10 0 61015 17100.00000 0 15086522.327 7314131.657 -19192217.216 10 0 61015 18000.00000 0 12636196.647 7642565.535 -20768883.586 10 0 61015 18900.00000 0 10051094.121 8185785.054 -21941050.543 10 0 61015 19800.00000 0 7399081.849 8948800.965 -22685918.063 10 0 61015 20700.00000 0 4748892.968 9924314.963 -22989029.352 10 0 61015 21600.00000 0 2167468.399 11092894.164 -22844550.007 10 0 61015 22500.00000 0 -282615.146 12423674.354 -22255376.947 10 0 61015 23400.00000 0 -2545523.783 13875562.492 -21233075.371 10 0 61015 24300.00000 0 -4574253.022 15398887.801 -19797645.492 10 0 61015 25200.00000 0 -6332336.141 16937431.774 -17977124.043 10 0 61015 26100.00000 0 -7795104.336 18430751.419 -15807028.919 10 0 61015 27000.00000 0 -8950447.679 19816697.704 -13329658.313 10 0 61015 27900.00000 0 -9799047.062 21034023.034 -10593258.556 10 0 61015 28800.00000 0 -10354069.620 22024967.894 -7651077.511 10 0 61015 29700.00000 0 -10640342.729 22737717.817 -4560322.511 10 0 61015 30600.00000 0 -10693043.600 23128627.496 -1381043.682 10 0 61015 31500.00000 0 -10555961.671 23164118.796 1825035.086 10 0 61015 32400.00000 0 -10279408.806 22822173.356 4995714.466 10 0 61015 33300.00000 0 -9917866.787 22093357.671 8069523.839 10 0 61015 34200.00000 0 -9527472.221 20981338.188 10986907.911 10 0 61015 35100.00000 0 -9163445.395 19502865.424 13691373.130 10 0 61015 36000.00000 0 -8877571.516 17687228.082 16130572.289 10 0 61015 36900.00000 0 -8715840.140 15575200.175 18257307.162 10 0 61015 37800.00000 0 -8716341.647 13217524.853 20030430.842 10 0 61015 38700.00000 0 -8907508.660 10672997.515 21415633.511 10 0 61015 39600.00000 0 -9306775.807 8006227.064 22386097.606 10 0 61015 40500.00000 0 -9919713.846 5285166.961 22923010.741 10 0 61015 41400.00000 0 -10739674.594 2578517.047 23015927.295 10 0 61015 42300.00000 0 -11747962.079 -46897.778 22662972.070 10 0 61015 43200.00000 0 -12914523.747 -2528665.048 21870882.131 10 0 61015 44100.00000 0 -14199134.104 -4811134.733 20654885.589 10 0 61015 45000.00000 0 -15553022.855 -6847485.580 19038418.844 10 0 61015 45900.00000 0 -16920881.021 -8601423.001 17052686.643 10 0 61015 46800.00000 0 -18243162.584 -10048438.608 14736072.043 10 0 61015 47700.00000 0 -19458586.478 -11176579.245 12133406.315 10 0 61015 48600.00000 0 -20506734.810 -11986693.542 9295111.551 10 0 61015 49500.00000 0 -21330638.588 -12492145.571 6276231.440 10 0 61015 50400.00000 0 -21879242.013 -12718007.499 3135368.203 10 0 61015 51300.00000 0 -22109640.913 -12699765.023 -66454.057 10 0 61015 52200.00000 0 -21988999.841 -12481590.217 -3266977.588 10 0 61015 53100.00000 0 -21496065.489 -12114254.877 -6403927.175 10 0 61015 54000.00000 0 -20622210.904 -11652773.102 -9416229.954 10 0 61015 54900.00000 0 -19371964.680 -11153873.571 -12245214.111 10 0 61015 55800.00000 0 -17763001.173 -10673409.553 -14835761.997 10 0 61015 56700.00000 0 -15825590.658 -10263817.453 -17137394.118 10 0 61015 57600.00000 0 -13601531.397 -9971732.719 -19105261.904 10 0 61015 58500.00000 0 -11142607.637 -9835865.251 -20701029.077 10 0 61015 59400.00000 0 -8508637.696 -9885225.236 -21893623.906 10 0 61015 60300.00000 0 -5765193.621 -10137775.352 -22659847.374 10 0 61015 61200.00000 0 -2981087.763 -10599566.914 -22984825.322 10 0 61015 62100.00000 0 -225731.284 -11264396.869 -22862295.901 10 0 61015 63000.00000 0 2433525.202 -12114000.247 -22294726.997 10 0 61015 63900.00000 0 4933958.022 -13118769.891 -21293261.740 10 0 61015 64800.00000 0 7219837.262 -14238972.859 -19877493.611 10 0 61015 65700.00000 0 9244496.012 -15426411.834 -18075076.022 10 0 61015 66600.00000 0 10972016.682 -16626461.053 -15921174.517 10 0 61015 67500.00000 0 12378465.456 -17780390.436 -13457772.818 10 0 61015 68400.00000 0 13452624.971 -18827879.518 -10732846.778 10 0 61015 69300.00000 0 14196196.606 -19709614.849 -7799422.980 10 0 61015 70200.00000 0 14623466.111 -20369861.113 -4714540.855 10 0 61015 71100.00000 0 14760448.867 -20758897.579 -1538139.115 10 0 61015 72000.00000 0 14643552.870 -20835217.268 1668111.335 10 0 61015 72900.00000 0 14317817.681 -20567396.514 4842004.911 10 0 61015 73800.00000 0 13834805.065 -19935556.599 7922005.877 10 0 61015 74700.00000 0 13250231.413 -18932356.437 10848436.463 10 0 61015 75600.00000 0 12621442.349 -17563475.032 13564625.858 10 0 61015 76500.00000 0 12004836.162 -15847563.743 16017998.426 10 0 61015 77400.00000 0 11453344.320 -13815670.379 18161080.853 10 0 61015 78300.00000 0 11014074.536 -11510158.947 19952409.833 10 0 61015 79200.00000 0 10726214.740 -8983169.441 21357323.899 10 0 61015 80100.00000 0 10619285.249 -6294680.846 22348625.254 10 0 61015 81000.00000 0 10711811.817 -3510256.496 22907099.856 10 0 61015 81900.00000 0 11010474.857 -698563.800 23021886.536 10 0 61015 82800.00000 0 11509770.484 2071230.572 22690688.453 10 0 61015 83700.00000 0 12192198.002 4732083.863 21919822.853 10 0 61015 84600.00000 0 13028966.807 7221611.762 20724107.780 10 0 61015 85500.00000 0 13981194.251 9484430.661 19126587.131 10 0 61016 0.00000 0 15001545.548 11474211.449 17158098.417 10 0 61016 900.00000 0 16036248.900 13155361.336 14856689.113 10 0 61016 1800.00000 0 17027401.171 14504261.538 12266894.183 10 0 61016 2700.00000 0 17915470.027 15510012.876 9438883.896 10 0 61016 3600.00000 0 18641886.499 16174655.322 6427499.811 10 0 61016 4500.00000 0 19151619.370 16512853.136 3291195.853 10 0 61016 5400.00000 0 19395622.299 16551058.425 90904.754 10 0 61016 6300.00000 0 19333049.458 16326188.141 -3111148.167 10 0 61016 7200.00000 0 18933144.738 15883870.322 -6252660.369 10 0 61016 8100.00000 0 18176723.084 15276333.924 -9272472.250 10 0 61016 9000.00000 0 17057179.520 14560031.904 -12111767.406 10 0 61016 9900.00000 0 15580981.468 13793098.893 -14715228.483 10 0 61016 10800.00000 0 13767621.819 13032751.942 -17032125.031 10 0 61016 11700.00000 0 11649033.211 12332745.347 -19017311.179 10 0 61016 12600.00000 0 9268486.937 11740988.264 -20632112.863 10 0 61016 13500.00000 0 6679021.768 11297426.733 -21845086.756 10 0 61016 14400.00000 0 3941467.974 11032280.411 -22632635.783 10 0 61016 15300.00000 0 1122148.878 10964708.936 -22979469.143 10 0 61016 16200.00000 0 -1709644.148 11101964.477 -22878897.995 10 0 61016 17100.00000 0 -4484297.943 11439066.148 -22332961.327 10 0 61016 18000.00000 0 -7134534.795 11959009.714 -21352379.931 10 0 61016 18900.00000 0 -9597970.112 12633503.230 -19956339.864 10 0 61016 19800.00000 0 -11819464.385 13424196.902 -18172110.073 10 0 61016 20700.00000 0 -13753172.078 14284354.529 -16034502.192 10 0 61016 21600.00000 0 -15364203.051 15160895.240 -13585183.544 10 0 61016 22500.00000 0 -16629828.533 15996718.620 -10871857.309 10 0 61016 23400.00000 0 -17540182.917 16733214.432 -7947326.386 10 0 61016 24300.00000 0 -18098433.983 17312850.521 -4868459.798 10 0 61016 25200.00000 0 -18320416.492 17681729.300 -1695082.274 10 0 61016 26100.00000 0 -18233746.657 17792004.809 1511190.828 10 0 61016 27000.00000 0 -17876456.718 17604058.443 4688150.225 10 0 61016 27900.00000 0 -17295208.781 17088341.788 7774197.577 10 0 61016 28800.00000 0 -16543164.457 16226809.286 10709535.102 10 0 61016 29700.00000 0 -15677600.891 15013880.729 13437317.147 10 0 61016 30600.00000 0 -14757373.909 13456893.365 15904741.966 10 0 61016 31500.00000 0 -13840334.947 11576024.676 18064063.374 10 0 61016 32400.00000 0 -12980809.868 9403688.772 19873503.731 10 0 61016 33300.00000 0 -12227244.763 6983430.967 21298051.795 10 0 61016 34200.00000 0 -11620116.617 4368365.626 22310131.177 10 0 61016 35100.00000 0 -11190195.474 1619220.919 22890127.535 10 0 61016 36000.00000 0 -10957230.150 -1197929.949 23026765.188 10 0 61016 36900.00000 0 -10929112.008 -4014158.714 22717326.304 10 0 61016 37800.00000 0 -11101551.694 -6760291.903 21967708.558 10 0 61016 38700.00000 0 -11458282.602 -9369534.214 20792319.720 10 0 61016 39600.00000 0 -11971783.230 -11779998.272 19213810.488 10 0 61016 40500.00000 0 -12604489.063 -13937037.108 17262649.584 10 0 61016 41400.00000 0 -13310444.271 -15795283.450 14976547.966 10 0 61016 42300.00000 0 -14037324.942 -17320311.471 12399741.905 10 0 61016 43200.00000 0 -14728749.753 -18489851.929 9582147.399 10 0 61016 44100.00000 0 -15326781.435 -19294509.792 6578401.130 10 0 61016 45000.00000 0 -15774513.786 -19737953.975 3446805.747 10 0 61016 45900.00000 0 -16018634.813 -19836570.797 248199.471 10 0 61016 46800.00000 0 -16011856.956 -19618595.389 -2955228.070 10 0 61016 47700.00000 0 -15715110.453 -19122757.365 -6101150.317 10 0 61016 48600.00000 0 -15099405.543 -18396497.904 -9128324.263 10 0 61016 49500.00000 0 -14147282.949 -17493833.757 -11977792.218 10 0 61016 50400.00000 0 -12853789.419 -16472958.943 -14594040.325 10 0 61016 51300.00000 0 -11226935.242 -15393686.216 -16926090.199 10 0 61016 52200.00000 0 -9287612.673 -14314837.275 -18928501.413 10 0 61016 53100.00000 0 -7068977.188 -13291692.890 -20562264.476 10 0 61016 54000.00000 0 -4615316.345 -12373611.426 -21795566.335 10 0 61016 54900.00000 0 -1980452.758 -11601916.935 -22604413.170 10 0 61016 55800.00000 0 774252.495 -11008146.321 -22973098.246 10 0 61016 56700.00000 0 3582212.956 -10612729.564 -22894505.832 10 0 61016 57600.00000 0 6374149.955 -10424158.454 -22370245.531 10 0 61016 58500.00000 0 9080740.273 -10438678.325 -21410614.784 10 0 61016 59400.00000 0 11635268.058 -10640515.029 -20034390.725 10 0 61016 60300.00000 0 13976170.698 -11002626.625 -18268455.899 10 0 61016 61200.00000 0 16049372.958 -11487946.961 -16147265.684 10 0 61016 62100.00000 0 17810312.721 -12051067.586 -13712168.290 10 0 61016 63000.00000 0 19225574.829 -12640285.894 -11010591.149 10 0 61016 63900.00000 0 20274066.058 -13199931.999 -8095110.115 10 0 61016 64800.00000 0 20947683.709 -13672875.242 -5022420.208 10 0 61016 65700.00000 0 21251451.649 -14003103.773 -1852228.448 10 0 61016 66600.00000 0 21203120.027 -14138267.845 1353909.089 10 0 61016 67500.00000 0 20832247.403 -14032079.202 4533783.025 10 0 61016 68400.00000 0 20178805.613 -13646465.294 7625735.777 10 0 61016 69300.00000 0 19291367.472 -12953387.623 10569852.551 10 0 61016 70200.00000 0 18224954.599 -11936247.832 13309115.404 10 0 61016 71100.00000 0 17038636.394 -10590822.537 15790498.564 10 0 61016 72000.00000 0 15792981.179 -8925687.690 17965984.551 10 0 61016 72900.00000 0 14547466.153 -6962114.424 19793482.491 10 0 61016 73800.00000 0 13357954.046 -4733440.152 21237632.022 10 0 61016 74700.00000 0 12274341.246 -2283940.263 22270478.400 10 0 61016 75600.00000 0 11338474.753 332753.927 22872006.847 10 0 61016 76500.00000 0 10582424.011 3055626.801 23030526.678 10 0 61016 77400.00000 0 10027178.998 5818559.595 22742898.267 10 0 61016 78300.00000 0 9681828.398 8552828.424 22014598.602 10 0 61016 79200.00000 0 9543251.941 11189717.498 20859623.795 10 0 61016 80100.00000 0 9596339.922 13663140.898 19300229.711 10 0 61016 81000.00000 0 9814731.157 15912165.556 17366514.604 10 0 61016 81900.00000 0 10162039.140 17883331.757 15095850.495 10 0 61016 82800.00000 0 10593515.758 19532675.185 12532172.861 10 0 61016 83700.00000 0 11058083.399 20827366.537 9725141.006 10 0 61016 84600.00000 0 11500650.521 21746900.041 6729184.175 10 0 61016 85500.00000 0 11864613.309 22283780.728 3602451.077 10 0 61017 0.00000 0 12094437.685 22443681.072 405682.994 10 0 61017 900.00000 0 12138212.056 22245059.812 -2798969.415 10 0 61017 1800.00000 0 11950061.520 21718258.390 -5949157.909 10 0 61017 2700.00000 0 11492320.370 20904113.016 -8983558.532 10 0 61017 3600.00000 0 10737368.903 19852140.570 -11843074.546 10 0 61017 4500.00000 0 9669055.080 18618375.260 -14471997.585 10 0 61017 5400.00000 0 8283638.972 17262947.795 -16819103.056 10 0 61017 6300.00000 0 6590218.208 15847509.878 -18838657.457 10 0 61017 7200.00000 0 4610614.790 14432613.454 -20491317.119 10 0 61017 8100.00000 0 2378726.540 13075155.916 -21744900.313 10 0 61017 9000.00000 0 -60630.738 11825999.553 -22575017.322 10 0 61017 9900.00000 0 -2653342.711 10727865.852 -22965546.103 10 0 61017 10800.00000 0 -5338010.348 9813593.368 -22908944.394 10 0 61017 11700.00000 0 -8048274.330 9104832.194 -22406392.450 10 0 61017 12600.00000 0 -10715353.091 8611229.350 -21467764.006 10 0 61017 13500.00000 0 -13270688.742 8330138.425 -20111426.485 10 0 61017 14400.00000 0 -15648590.638 8246864.500 -18363874.803 10 0 61017 15300.00000 0 -17788766.512 8335432.667 -16259206.446 10 0 61017 16200.00000 0 -19638636.034 8559846.260 -13838448.524 10 0 61017 17100.00000 0 -21155330.862 8875780.283 -11148750.477 10 0 61017 18000.00000 0 -22307298.546 9232637.165 -8242458.692 10 0 61017 18900.00000 0 -23075444.437 9575876.783 -5176091.667 10 0 61017 19800.00000 0 -23453765.290 9849521.326 -2009236.161 10 0 61017 20700.00000 0 -23449449.620 9998728.376 1196613.591 10 0 61017 21600.00000 0 -23082442.352 9972322.999 4379250.658 10 0 61017 22500.00000 0 -22384493.680 9725181.670 7476960.735 10 0 61017 23400.00000 0 -21397733.558 9220367.356 10429714.493 10 0 61017 24300.00000 0 -20172832.837 8430925.867 13180324.127 10 0 61017 25200.00000 0 -18766828.962 7341267.938 15675542.163 10 0 61017 26100.00000 0 -17240707.774 5948078.995 17867082.022 10 0 61017 27000.00000 0 -15656842.556 4260718.292 19712541.597 10 0 61017 27900.00000 0 -14076396.962 2301090.222 21176213.162 10 0 61017 28800.00000 0 -12556799.526 102992.412 22229765.086 10 0 61017 29700.00000 0 -11149394.121 -2289033.413 22852783.308 10 0 61017 30600.00000 0 -9897363.220 -4821301.481 23033162.948 10 0 61017 31500.00000 0 -8834009.495 -7432968.207 22767343.047 10 0 61017 32400.00000 0 -7981466.455 -10058324.091 22060379.997 10 0 61017 33300.00000 0 -7349891.253 -12629298.128 20925857.988 10 0 61017 34200.00000 0 -6937173.054 -15078072.628 19385637.404 10 0 61017 35100.00000 0 -6729169.103 -17339701.461 17469445.020 10 0 61017 36000.00000 0 -6700458.959 -19354624.143 15214312.533 10 0 61017 36900.00000 0 -6815585.691 -21070971.867 12663872.902 10 0 61017 37800.00000 0 -7030732.514 -22446569.684 9867526.708 10 0 61017 38700.00000 0 -7295764.771 -23450551.107 6879493.472 10 0 61017 39600.00000 0 -7556551.485 -24064517.043 3757765.463 10 0 61017 40500.00000 0 -7757468.451 -24283189.800 562983.790 10 0 61017 41400.00000 0 -7843976.620 -24114533.846 -2642741.489 10 0 61017 42300.00000 0 -7765165.854 -23579337.428 -5797043.911 10 0 61017 43200.00000 0 -7476155.112 -22710272.061 -8838521.549 10 0 61017 44100.00000 0 -6940245.882 -21550469.075 -11707941.636 10 0 61017 45000.00000 0 -6130735.874 -20151673.138 -14349404.317 10 0 61017 45900.00000 0 -5032314.366 -18572050.775 -16711441.736 10 0 61017 46800.00000 0 -3641978.292 -16873746.648 -18748030.094 10 0 61017 47700.00000 0 -1969428.614 -15120291.139 -20419494.073 10 0 61017 48600.00000 0 -36928.663 -13373968.978 -21693285.431 10 0 61017 49500.00000 0 2121370.941 -11693260.165 -22544620.292 10 0 61017 50400.00000 0 4460613.494 -10130461.145 -22956962.563 10 0 61017 51300.00000 0 6926874.774 -8729586.262 -22922344.214 10 0 61017 52200.00000 0 9459190.889 -7524637.371 -22441516.416 10 0 61017 53100.00000 0 11991890.841 -6538313.666 -21523928.987 10 0 61017 54000.00000 0 14457136.493 -5781214.907 -20187538.966 10 0 61017 54900.00000 0 16787563.935 -5251570.227 -18458452.516 10 0 61017 55800.00000 0 18918916.008 -4935502.342 -16370407.643 10 0 61017 56700.00000 0 20792556.229 -4807814.343 -13964108.304 10 0 61017 57600.00000 0 22357759.460 -4833264.112 -11286423.417 10 0 61017 58500.00000 0 23573684.116 -4968270.912 -8389466.930 10 0 61017 59400.00000 0 24410944.259 -5162980.498 -5329577.451 10 0 61017 60300.00000 0 24852716.848 -5363600.177 -2166217.817 10 0 61017 61200.00000 0 24895339.053 -5514904.017 1039183.403 10 0 61017 62100.00000 0 24548372.024 -5562801.563 4224425.574 10 0 61017 63000.00000 0 23834129.901 -5456861.006 7327741.372 10 0 61017 63900.00000 0 22786695.194 -5152680.035 10288990.392 10 0 61017 64800.00000 0 21450462.963 -4614004.327 13050818.040 10 0 61017 65700.00000 0 19878275.652 -3814504.471 15559757.788 10 0 61017 66600.00000 0 18129227.097 -2739136.649 17767256.137 10 0 61017 67500.00000 0 16266227.607 -1385029.878 19630601.458 10 0 61017 68400.00000 0 14353431.371 238137.664 21113739.921 10 0 61017 69300.00000 0 12453632.828 2108289.584 22187963.847 10 0 61017 70200.00000 0 10625739.404 4191624.142 22832460.311 10 0 61017 71100.00000 0 8922424.662 6443782.347 23034710.274 10 0 61017 72000.00000 0 7388058.293 8811464.299 22790731.077 10 0 61017 72900.00000 0 6056997.914 11234428.428 22105157.789 10 0 61017 73800.00000 0 4952312.800 13647792.555 20991161.552 10 0 61017 74700.00000 0 4084992.062 15984543.016 19470205.808 10 0 61017 75600.00000 0 3453669.886 18178149.298 17571644.052 10 0 61017 76500.00000 0 3044879.219 20165176.769 15332165.566 10 0 61017 77400.00000 0 2833823.473 21887789.594 12795098.442 10 0 61017 78300.00000 0 2785634.150 23296039.881 10009581.968 10 0 61017 79200.00000 0 2857061.882 24349847.361 7029623.184 10 0 61017 80100.00000 0 2998529.891 25020586.237 3913055.039 10 0 61017 81000.00000 0 3156463.233 25292211.873 720415.785 10 0 61017 81900.00000 0 3275795.118 25161878.991 -2486228.675 10 0 61017 82800.00000 0 3302543.567 24640024.319 -5644496.269 10 0 61017 83700.00000 0 3186348.291 23749909.236 -8692909.840 10 0 61017 84600.00000 0 2882858.945 22526640.909 -11572103.121 10 0 61017 85500.00000 0 2355871.975 21015712.648 -14225987.014 99